This demonstration page uses our WeatherBlox Daily Observations layout. Learn more.

Left ArrowRight Arrow

Hourly Observations for December 25, 2016

Temp ( °F °C ) Dew Point ( °F °C ) Humidity (%) Winds ( mph kmh ) Pressure ( in mb ) Visibility ( mi km ) Precip ( " mm )
12:14 am 00:14 Cloudy 34 1 34 1 100 100 ENE 3 6 30.36 1028 4 6 N/A
12:34 am 00:34 Cloudy 34 1 32 undefined 93 93 ENE 5 7 30.36 1028 4 6 N/A
12:54 am 00:54 Cloudy 34 1 32 undefined 93 93 N N/A 30.36 1028 4 6 N/A
1:14 am 01:14 Cloudy 34 1 32 undefined 93 93 ENE 3 6 30.39 1029 4 6 N/A
1:34 am 01:34 Cloudy 34 1 32 undefined 93 93 E 6 9 30.36 1028 4 6 N/A
1:54 am 01:54 Cloudy 34 1 32 undefined 93 93 ENE 7 11 30.36 1028 4 6 N/A
2:14 am 02:14 Cloudy 34 1 32 undefined 93 93 E 7 11 30.36 1028 4 6 N/A
2:34 am 02:34 Cloudy 34 1 32 undefined 93 93 ENE 7 11 30.39 1029 4 6 N/A
2:54 am 02:54 Cloudy 34 1 32 undefined 93 93 NE 6 9 30.39 1029 4 6 N/A
3:14 am 03:14 Cloudy 34 1 32 undefined 93 93 ENE 5 7 30.39 1029 4 6 N/A
3:34 am 03:34 Cloudy 34 1 32 undefined 93 93 ENE 6 9 30.39 1029 4 6 N/A
3:54 am 03:54 Cloudy 34 1 32 undefined 93 93 ENE 7 11 30.39 1029 4 6 N/A
4:14 am 04:14 Cloudy 34 1 32 undefined 93 93 ENE 7 11 30.39 1029 4 6 N/A
4:34 am 04:34 Cloudy 34 1 32 undefined 93 93 ENE 6 9 30.39 1029 3 5 N/A
4:54 am 04:54 Cloudy 34 1 32 undefined 93 93 E 7 11 30.36 1028 3 5 N/A
5:14 am 05:14 Cloudy 34 1 32 undefined 93 93 ENE 7 11 30.36 1028 4 6 N/A
5:33 am 05:33 Cloudy 34 1 32 undefined 93 93 ENE 7 11 30.36 1028 4 6 N/A
5:54 am 05:54 Cloudy 34 1 32 undefined 93 93 ENE 7 11 30.36 1028 4 6 N/A
6:14 am 06:14 Cloudy 34 1 32 undefined 93 93 ENE 6 9 30.36 1028 4 6 N/A
6:34 am 06:34 Cloudy 34 1 32 undefined 93 93 ENE 7 11 30.39 1029 4 6 N/A
6:54 am 06:54 Cloudy 34 1 32 undefined 93 93 E 6 9 30.39 1029 3 5 N/A
7:14 am 07:14 Cloudy 34 1 34 1 100 100 E 6 9 30.39 1029 3 5 N/A
7:34 am 07:34 Cloudy 34 1 34 1 100 100 E 6 9 30.39 1029 3 4 N/A
7:53 am 07:53 Cloudy 34 1 34 1 100 100 E 7 11 30.39 1029 3 5 N/A
8:14 am 08:14 Cloudy 34 1 34 1 100 100 E 5 7 30.39 1029 4 6 N/A
8:34 am 08:34 Cloudy 34 1 34 1 100 100 ENE 5 7 30.42 1030 3 5 N/A
8:54 am 08:54 Cloudy 34 1 34 1 100 100 ENE 5 7 30.42 1030 3 5 N/A
9:14 am 09:14 Cloudy 34 1 34 1 100 100 ENE 6 9 30.42 1030 2 3 N/A
9:34 am 09:34 Cloudy 36 2 34 1 93 93 ENE 7 11 30.42 1030 2 2 N/A
9:54 am 09:54 Cloudy 36 2 34 1 93 93 ENE 8 13 30.42 1030 2 3 N/A
10:14 am 10:14 Cloudy 36 2 36 2 100 100 E 8 13 30.39 1029 2 3 N/A
10:34 am 10:34 Cloudy 36 2 36 2 100 100 E 9 15 30.39 1029 2 3 N/A
10:54 am 10:54 Cloudy 37 3 36 2 93 93 E 9 15 30.39 1029 3 4 N/A
11:14 am 11:14 Cloudy 37 3 36 2 93 93 E 10 17 30.39 1029 3 5 N/A
11:33 am 11:33 Cloudy 37 3 37 3 100 100 E 8 13 30.39 1029 3 5 N/A
11:54 am 11:54 Cloudy 39 4 37 3 93 93 E 9 15 30.36 1028 3 5 N/A
12:14 pm 12:14 Cloudy 39 4 37 3 93 93 ESE 8 13 30.36 1028 3 5 N/A
12:34 pm 12:34 Cloudy 39 4 37 3 93 93 E 9 15 30.36 1028 3 5 N/A
12:54 pm 12:54 Cloudy 39 4 37 3 93 93 E 9 15 30.36 1028 3 4 N/A
1:14 pm 13:14 Cloudy 39 4 37 3 93 93 ESE 8 13 30.36 1028 3 4 N/A
1:34 pm 13:34 Cloudy 39 4 39 4 100 100 E 9 15 30.33 1027 3 4 N/A
1:54 pm 13:54 Cloudy 39 4 39 4 100 100 E 9 15 30.33 1027 2 3 N/A
2:13 pm 14:13 Cloudy 39 4 39 4 100 100 E 10 17 30.33 1027 2 3 N/A
2:34 pm 14:34 Cloudy 39 4 39 4 100 100 E 9 15 30.33 1027 2 2 N/A
2:53 pm 14:53 Cloudy 39 4 39 4 100 100 E 10 17 30.30 1026 2 3 N/A
3:14 pm 15:14 Cloudy 39 4 39 4 100 100 E 8 13 30.30 1026 2 3 N/A
3:34 pm 15:34 Cloudy 39 4 39 4 100 100 E 9 15 30.30 1026 2 2 N/A
3:54 pm 15:54 Cloudy 39 4 39 4 100 100 E 9 15 30.30 1026 2 2 N/A
4:14 pm 16:14 Cloudy 39 4 39 4 100 100 E 7 11 30.30 1026 2 3 N/A
4:34 pm 16:34 Cloudy 41 5 39 4 93 93 E 8 13 30.30 1026 2 3 N/A
4:54 pm 16:54 Cloudy 41 5 39 4 93 93 E 12 19 30.30 1026 3 5 N/A
5:14 pm 17:14 Cloudy 39 4 39 4 100 100 E 9 15 30.30 1026 3 4 N/A
5:34 pm 17:34 Cloudy 39 4 39 4 100 100 E 9 15 30.30 1026 2 3 N/A
5:54 pm 17:54 Cloudy 41 5 39 4 93 93 ESE 8 13 30.30 1026 2 2 N/A
6:14 pm 18:14 Cloudy 39 4 39 4 100 100 ESE 9 15 30.30 1026 1 2 N/A
6:34 pm 18:34 Cloudy 41 5 41 5 100 100 ESE 9 15 30.30 1026 1 2 N/A
6:54 pm 18:54 Cloudy 41 5 41 5 100 100 ESE 8 13 30.30 1026 1 2 N/A
7:14 pm 19:14 Cloudy 41 5 41 5 100 100 ESE 9 15 30.30 1026 1 2 N/A
7:34 pm 19:34 Cloudy 41 5 41 5 100 100 SE 12 19 30.24 1024 1 1 N/A
7:54 pm 19:54 Cloudy 41 5 41 5 100 100 SE 12 19 30.24 1024 1 1 N/A
8:14 pm 20:14 Cloudy 41 5 41 5 100 100 SE 12 19 30.24 1024 1 2 N/A
8:34 pm 20:34 Cloudy 43 6 41 5 93 93 SE 9 15 30.24 1024 1 2 N/A
8:54 pm 20:54 Cloudy 43 6 43 6 100 100 SE 13 20 30.24 1024 1 1 N/A
9:14 pm 21:14 Cloudy 43 6 43 6 100 100 SE 10 17 30.24 1024 1 1 N/A
9:34 pm 21:34 Cloudy 43 6 43 6 100 100 SE 8 13 30.24 1024 1 1 N/A
9:54 pm 21:54 Cloudy 43 6 43 6 100 100 SE 9 15 30.21 1023 1 1 N/A
10:14 pm 22:14 Cloudy 45 7 45 7 100 100 SE 9 15 30.24 1024 1 1 N/A
10:34 pm 22:34 Cloudy 45 7 45 7 100 100 SE 12 19 30.21 1023 1 1 N/A
10:54 pm 22:54 Cloudy 45 7 45 7 100 100 SE 12 19 30.21 1023 1 1 N/A
11:14 pm 23:14 Cloudy 45 7 45 7 100 100 SE 13 20 30.21 1023 1 1 N/A
11:34 pm 23:34 Cloudy 45 7 45 7 100 100 SE 9 15 30.21 1023 1 1 N/A
11:54 pm 23:54 Cloudy 45 7 45 7 100 100 SE 8 13 30.21 1023 1 1 N/A

Powered by AerisWeather